Denver, CO

12:33 PM MDT on March 23, 2017 (GMT -0600)
Denver International

Weather History for KDEN - March, 2013

Change the Weather History Date:

Tuesday, March 5, 2013

  Actual Average Record
Temperature  
Mean Temperature 21 °F 37 °F  
Max Temperature 37 °F 51 °F 76 °F (1910)
Min Temperature 4 °F 24 °F -5 °F (1989)
Degree Days  
Heating Degree Days 44 28  
Month to date heating degree days 161 142  
Since 1 July heating degree days 4433 4581  
Cooling Degree Days 0 0  
Month to date cooling degree days 0 0  
Year to date cooling degree days 0 0  
Moisture  
Dew Point 12 °F    
Average Humidity 62    
Maximum Humidity 76    
Minimum Humidity 47    
Precipitation  
Precipitation 0.00 in 0.02 in 2.68 in (1983)
Month to date precipitation 0.09 0.09  
Year to date precipitation 1.17 0.87  
Snow  
Snow 0.00 in - - ()
Month to date snowfall 2  
Since 1 July snowfall 33.1  
Snow Depth 4.00 in    
Sea Level Pressure  
Sea Level Pressure 30.29 in    
Wind  
Wind Speed 9 mph (SSE)    
Max Wind Speed 21 mph    
Max Gust Speed 23 mph    
Visibility 10 miles    
Events      
T = Trace of Precipitation, MM = Missing Value Source: NWS Daily Summary

Daily Weather History Graph

Daily Weather History Graph

Search for Another Location

Airport or City:

Trip Planner

Search our weather history database for the weather conditions in past years. The results will help you decide how hot, cold, wet, or windy it might be!

Date:

Astronomy

Mar. 05, 2013 Rise Set
Actual Time 6:25 AM MST 5:55 PM MST
Civil Twilight 5:58 AM MST 6:22 PM MST
Nautical Twilight 5:27 AM MST 6:53 PM MST
Astronomical Twilight 4:55 AM MST 7:25 PM MST
Moon 1:39 AM MST (3/5) 11:37 AM MST (3/5)
Length of Visible Light 12h 24m
Length of Day
11h 29m
Last Quarter, 40% of the Moon is Illuminated
Mar 5
Last Quarter
Mar 11
New
Mar 19
First Quarter
Mar 27
Full
Apr 2
Last Quarter

Hourly Weather History & Observations

Time (MST) Temp. Windchill Dew Point Humidity Pressure Visibility Wind Dir Wind Speed Gust Speed Precip Events Conditions
12:53 AM 9.0 °F -5.1 °F 1.0 °F 70% 30.35 in 10.0 mi SSE 10.4 mph - N/A   Clear
1:53 AM 7.0 °F -8.3 °F -0.9 °F 70% 30.38 in 10.0 mi SSE 11.5 mph - N/A   Clear
2:53 AM 7.0 °F -7.5 °F -0.9 °F 70% 30.36 in 10.0 mi SSE 10.4 mph - N/A   Clear
3:53 AM 5.0 °F -10.8 °F -2.0 °F 73% 30.35 in 10.0 mi SSE 11.5 mph - N/A   Clear
4:53 AM 9.0 °F -7.9 °F -0.0 °F 67% 30.36 in 10.0 mi South 15.0 mph - N/A   Clear
5:53 AM 5.0 °F -10.0 °F -2.2 °F 72% 30.22 in 10.0 mi SSE 10.4 mph - N/A   Clear
6:53 AM 8.1 °F -9.0 °F -0.9 °F 67% 30.40 in 10.0 mi South 15.0 mph - N/A   Clear
7:53 AM 12.9 °F 3.8 °F 3.9 °F 67% 30.38 in 10.0 mi SSE 5.8 mph - N/A   Clear
8:53 AM 19.9 °F 10.1 °F 9.0 °F 62% 30.37 in 10.0 mi SSE 8.1 mph - N/A   Clear
9:53 AM 28.0 °F 20.0 °F 12.0 °F 51% 30.33 in 10.0 mi SE 8.1 mph - N/A   Clear
10:53 AM 30.9 °F 21.2 °F 12.0 °F 46% 30.32 in 10.0 mi ESE 12.7 mph - N/A   Clear
11:53 AM 34.0 °F 25.0 °F 17.1 °F 50% 30.30 in 10.0 mi ESE 12.7 mph - N/A   Clear
12:53 PM 34.0 °F 23.8 °F 16.0 °F 48% 30.29 in 10.0 mi ESE 16.1 mph - N/A   Clear
1:53 PM 35.6 °F 26.6 °F 17.6 °F 48% 30.15 in 10.0 mi East 13.8 mph - N/A   Clear
2:53 PM 36.0 °F 29.0 °F 21.0 °F 55% 30.27 in 10.0 mi East 9.2 mph - N/A   Clear
3:53 PM 37.0 °F 31.6 °F 21.0 °F 52% 30.27 in 10.0 mi ESE 6.9 mph - N/A   Clear
4:53 PM 37.0 °F 33.3 °F 21.0 °F 52% 30.24 in 10.0 mi SE 4.6 mph - N/A   Partly Cloudy
5:53 PM 34.0 °F 31.0 °F 21.9 °F 61% 30.27 in 10.0 mi ENE 3.5 mph - N/A   Partly Cloudy
6:53 PM 32.0 °F 27.5 °F 21.9 °F 66% 30.27 in 10.0 mi North 4.6 mph - N/A   Partly Cloudy
7:53 PM 32.0 °F 27.5 °F 21.0 °F 64% 30.23 in 10.0 mi WSW 4.6 mph - N/A   Partly Cloudy
8:53 PM 30.9 °F 27.5 °F 21.0 °F 67% 30.21 in 10.0 mi WSW 3.5 mph - N/A   Partly Cloudy
9:53 PM 28.9 °F 25.2 °F 19.9 °F 69% 30.19 in 10.0 mi SW 3.5 mph - N/A   Partly Cloudy
10:53 PM 27.0 °F 23.0 °F 19.0 °F 72% 30.18 in 10.0 mi SSW 3.5 mph - N/A   Clear
11:53 PM 25.0 °F 20.7 °F 18.0 °F 75% 30.16 in 10.0 mi South 3.5 mph - N/A   Clear